Location: Unspecified
(0.0000°N, 0.0000°E)
Time: 16:02:56
(UTC+00:00)

X-37B - Pass Details

Date: 25 September 2020
Orbit: 386 x 387 km, 45.0° (Epoch: 18 September)

Event Time Altitude Azimuth Distance (km) Brightness Sun altitude
Rises 19:22:41 0° 236° (WSW) 2,257 5.4 -22.8°
Reaches altitude 10° 19:24:53 10° 247° (WSW) 1,401 4.3 -23.4°
Enters shadow 19:27:22 31° 296° (WNW) 698 2.3 -24.0°
